Time,TemperatureF,DewpointF,PressureIn,WindDirection,WindDirectionDegrees,WindSpeedMPH,WindSpeedGustMPH,Humidity,HourlyPrecipIn,Conditions,Clouds,dailyrainin,SoftwareType,DateUTC
2013-03-16 00:00:00,59.7,42.6,30.16,SSW,207,2.0,4.0,53,0.00,,,0.00,VWS V14.01,2013-03-16 04:00:00,
2013-03-16 00:03:00,59.6,42.5,30.16,SSW,213,3.0,5.0,53,0.00,,,0.00,VWS V14.01,2013-03-16 04:03:00,
2013-03-16 00:06:00,59.5,42.4,30.16,SSW,209,0.0,5.0,53,0.00,,,0.00,VWS V14.01,2013-03-16 04:06:00,
2013-03-16 00:12:00,59.2,42.1,30.16,SW,221,0.0,4.0,53,0.00,,,0.00,VWS V14.01,2013-03-16 04:12:00,
2013-03-16 00:18:00,58.9,42.3,30.16,SW,220,4.0,6.0,54,0.00,,,0.00,VWS V14.01,2013-03-16 04:18:00,
2013-03-16 00:23:00,58.7,42.1,30.16,SW,220,2.0,6.0,54,0.00,,,0.00,VWS V14.01,2013-03-16 04:23:00,
2013-03-16 00:28:00,58.5,42.4,30.16,SW,226,2.0,5.0,55,0.00,,,0.00,VWS V14.01,2013-03-16 04:28:00,
2013-03-16 00:33:00,58.4,42.3,30.16,SW,228,3.0,7.0,55,0.00,,,0.00,VWS V14.01,2013-03-16 04:33:00,
2013-03-16 00:38:00,58.2,42.6,30.16,WSW,247,3.0,5.0,56,0.00,,,0.00,VWS V14.01,2013-03-16 04:38:00,
2013-03-16 00:45:00,57.9,42.8,30.16,SSW,199,0.0,3.0,57,0.00,,,0.00,VWS V14.01,2013-03-16 04:45:00,
2013-03-16 00:51:00,57.7,42.6,30.16,SW,235,5.0,7.0,57,0.00,,,0.00,VWS V14.01,2013-03-16 04:51:00,
2013-03-16 00:57:00,57.6,43.0,30.15,SW,224,0.0,4.0,58,0.00,,,0.00,VWS V14.01,2013-03-16 04:57:00,
2013-03-16 01:03:00,57.4,43.2,30.15,SW,224,0.0,7.0,59,0.00,,,0.00,VWS V14.01,2013-03-16 05:03:00,
2013-03-16 01:08:00,57.3,43.5,30.15,South,189,1.0,7.0,60,0.00,,,0.00,VWS V14.01,2013-03-16 05:08:00,
2013-03-16 01:13:00,57.1,43.4,30.15,WSW,243,0.0,7.0,60,0.00,,,0.00,VWS V14.01,2013-03-16 05:13:00,
2013-03-16 01:18:00,56.9,43.6,30.15,SW,217,4.0,5.0,61,0.00,,,0.00,VWS V14.01,2013-03-16 05:18:00,
2013-03-16 01:23:00,56.8,43.5,30.15,SW,231,0.0,5.0,61,0.00,,,0.00,VWS V14.01,2013-03-16 05:23:00,
2013-03-16 01:28:00,56.6,43.8,30.14,WSW,247,1.0,4.0,62,0.00,,,0.00,VWS V14.01,2013-03-16 05:28:00,
2013-03-16 01:33:00,56.4,43.6,30.14,West,275,0.0,4.0,62,0.00,,,0.00,VWS V14.01,2013-03-16 05:33:00,
2013-03-16 01:38:00,56.3,43.9,30.14,West,279,2.0,4.0,63,0.00,,,0.00,VWS V14.01,2013-03-16 05:38:00,
2013-03-16 01:43:00,56.1,44.1,30.14,WSW,256,1.0,3.0,64,0.00,,,0.00,VWS V14.01,2013-03-16 05:43:00,
2013-03-16 01:48:00,56.0,44.4,30.14,WSW,242,0.0,4.0,65,0.00,,,0.00,VWS V14.01,2013-03-16 05:48:00,
2013-03-16 01:55:00,55.9,44.7,30.13,SW,230,0.0,1.0,66,0.00,,,0.00,VWS V14.01,2013-03-16 05:55:00,
2013-03-16 02:01:00,55.8,44.6,30.13,SW,232,0.0,1.0,66,0.00,,,0.00,VWS V14.01,2013-03-16 06:01:00,
2013-03-16 02:07:00,55.7,44.9,30.13,SW,220,1.0,1.0,67,0.00,,,0.00,VWS V14.01,2013-03-16 06:07:00,
2013-03-16 02:13:00,55.5,45.1,30.13,SW,220,0.0,5.0,68,0.00,,,0.00,VWS V14.01,2013-03-16 06:13:00,
2013-03-16 02:18:00,55.5,45.5,30.13,West,260,4.0,6.0,69,0.00,,,0.00,VWS V14.01,2013-03-16 06:18:00,
2013-03-16 02:23:00,55.6,45.6,30.13,SSW,210,2.0,6.0,69,0.00,,,0.00,VWS V14.01,2013-03-16 06:23:00,
2013-03-16 02:33:00,55.6,46.0,30.13,SSW,212,2.0,6.0,70,0.00,,,0.00,VWS V14.01,2013-03-16 06:33:00,
2013-03-16 02:38:00,55.6,46.0,30.13,WSW,242,3.0,4.0,70,0.00,,,0.00,VWS V14.01,2013-03-16 06:38:00,
2013-03-16 02:46:00,55.5,46.3,30.13,SSW,210,0.0,5.0,71,0.00,,,0.00,VWS V14.01,2013-03-16 06:46:00,
2013-03-16 02:52:00,55.3,46.1,30.12,SW,216,0.0,6.0,71,0.00,,,0.00,VWS V14.01,2013-03-16 06:52:00,
2013-03-16 02:58:00,55.2,46.0,30.12,SW,236,2.0,2.0,71,0.00,,,0.00,VWS V14.01,2013-03-16 06:58:00,
2013-03-16 03:03:00,55.1,45.9,30.12,WSW,256,0.0,5.0,71,0.00,,,0.00,VWS V14.01,2013-03-16 07:03:00,
2013-03-16 03:10:00,55.0,46.2,30.12,SW,234,1.0,5.0,72,0.00,,,0.00,VWS V14.01,2013-03-16 07:10:00,
2013-03-16 03:16:00,54.9,46.1,30.12,SW,232,0.0,3.0,72,0.00,,,0.00,VWS V14.01,2013-03-16 07:16:00,
2013-03-16 03:22:00,54.8,46.3,30.12,WSW,241,0.0,3.0,73,0.00,,,0.00,VWS V14.01,2013-03-16 07:22:00,
2013-03-16 03:28:00,54.6,46.1,30.12,SW,225,6.0,6.0,73,0.00,,,0.00,VWS V14.01,2013-03-16 07:28:00,
2013-03-16 03:33:00,54.5,46.0,30.12,SW,220,3.0,6.0,73,0.00,,,0.00,VWS V14.01,2013-03-16 07:33:00,
2013-03-16 03:38:00,54.4,46.3,30.12,SSW,200,1.0,4.0,74,0.00,,,0.00,VWS V14.01,2013-03-16 07:38:00,
2013-03-16 03:43:00,54.3,45.8,30.12,WSW,248,0.0,5.0,73,0.00,,,0.00,VWS V14.01,2013-03-16 07:43:00,
2013-03-16 03:48:00,54.2,46.1,30.12,WSW,248,1.0,4.0,74,0.00,,,0.00,VWS V14.01,2013-03-16 07:48:00,
2013-03-16 03:53:00,54.1,46.4,30.12,SW,222,0.0,7.0,75,0.00,,,0.00,VWS V14.01,2013-03-16 07:53:00,
2013-03-16 03:58:00,54.0,46.3,30.12,SW,217,0.0,3.0,75,0.00,,,0.00,VWS V14.01,2013-03-16 07:58:00,
2013-03-16 04:03:00,53.8,46.4,30.11,SSW,209,0.0,5.0,76,0.00,,,0.00,VWS V14.01,2013-03-16 08:03:00,
2013-03-16 04:10:00,53.7,46.3,30.11,West,263,1.0,2.0,76,0.00,,,0.00,VWS V14.01,2013-03-16 08:10:00,
2013-03-16 04:17:00,53.6,46.6,30.11,West,262,0.0,1.0,77,0.00,,,0.00,VWS V14.01,2013-03-16 08:17:00,
2013-03-16 04:23:00,53.5,46.5,30.11,West,262,0.0,2.0,77,0.00,,,0.00,VWS V14.01,2013-03-16 08:23:00,
2013-03-16 04:28:00,53.5,46.8,30.11,SSW,207,0.0,5.0,78,0.00,,,0.00,VWS V14.01,2013-03-16 08:28:00,
2013-03-16 04:33:00,53.5,46.8,30.11,SW,225,0.0,5.0,78,0.00,,,0.00,VWS V14.01,2013-03-16 08:33:00,
2013-03-16 04:38:00,53.7,47.0,30.11,SW,224,1.0,5.0,78,0.00,,,0.00,VWS V14.01,2013-03-16 08:38:00,
2013-03-16 04:43:00,53.7,47.0,30.11,SW,231,4.0,5.0,78,0.00,,,0.00,VWS V14.01,2013-03-16 08:43:00,
2013-03-16 04:48:00,53.7,47.0,30.11,SW,215,1.0,4.0,78,0.00,,,0.00,VWS V14.01,2013-03-16 08:48:00,
2013-03-16 04:53:00,53.6,46.9,30.11,SW,224,0.0,5.0,78,0.00,,,0.00,VWS V14.01,2013-03-16 08:53:00,
2013-03-16 04:58:00,53.5,46.8,30.11,WSW,241,0.0,4.0,78,0.00,,,0.00,VWS V14.01,2013-03-16 08:58:00,
2013-03-16 05:05:00,53.4,47.1,30.11,SW,216,0.0,5.0,79,0.00,,,0.00,VWS V14.01,2013-03-16 09:05:00,
2013-03-16 05:11:00,53.4,47.1,30.11,SW,215,0.0,4.0,79,0.00,,,0.00,VWS V14.01,2013-03-16 09:11:00,
2013-03-16 05:17:00,53.4,47.1,30.11,SW,217,2.0,3.0,79,0.00,,,0.00,VWS V14.01,2013-03-16 09:17:00,
2013-03-16 05:23:00,53.4,47.4,30.11,West,272,0.0,4.0,80,0.00,,,0.00,VWS V14.01,2013-03-16 09:23:00,
2013-03-16 05:28:00,53.5,47.2,30.11,SSW,208,0.0,2.0,79,0.00,,,0.00,VWS V14.01,2013-03-16 09:28:00,
2013-03-16 05:35:00,53.4,47.4,30.11,SW,236,0.0,4.0,80,0.00,,,0.00,VWS V14.01,2013-03-16 09:35:00,
2013-03-16 05:41:00,53.3,47.3,30.11,SW,215,0.0,1.0,80,0.00,,,0.00,VWS V14.01,2013-03-16 09:41:00,
2013-03-16 05:47:00,53.2,47.2,30.11,SW,215,3.0,4.0,80,0.00,,,0.00,VWS V14.01,2013-03-16 09:47:00,
2013-03-16 05:53:00,53.1,47.4,30.11,SW,217,2.0,4.0,81,0.00,,,0.00,VWS V14.01,2013-03-16 09:53:00,
2013-03-16 05:58:00,53.0,47.3,30.11,SSW,204,0.0,4.0,81,0.00,,,0.00,VWS V14.01,2013-03-16 09:58:00,
2013-03-16 06:03:00,53.0,47.3,30.11,SSW,212,0.0,6.0,81,0.00,,,0.00,VWS V14.01,2013-03-16 10:03:00,
2013-03-16 06:08:00,53.0,47.7,30.11,SW,228,1.0,5.0,82,0.00,,,0.00,VWS V14.01,2013-03-16 10:08:00,
2013-03-16 06:14:00,53.1,48.1,30.11,WSW,241,0.0,2.0,83,0.00,,,0.00,VWS V14.01,2013-03-16 10:14:00,
2013-03-16 06:20:00,53.0,48.3,30.11,WSW,246,0.0,3.0,84,0.00,,,0.00,VWS V14.01,2013-03-16 10:20:00,
2013-03-16 06:26:00,52.9,48.2,30.11,SW,233,3.0,3.0,84,0.00,,,0.00,VWS V14.01,2013-03-16 10:26:00,
2013-03-16 06:32:00,52.8,48.4,30.11,SW,221,0.0,4.0,85,0.00,,,0.00,VWS V14.01,2013-03-16 10:32:00,
2013-03-16 06:38:00,52.7,48.3,30.11,West,269,0.0,2.0,85,0.00,,,0.00,VWS V14.01,2013-03-16 10:38:00,
2013-03-16 06:44:00,52.5,48.1,30.11,West,269,0.0,2.0,85,0.00,,,0.00,VWS V14.01,2013-03-16 10:44:00,
2013-03-16 06:51:00,52.3,47.9,30.12,WSW,245,0.0,3.0,85,0.00,,,0.00,VWS V14.01,2013-03-16 10:51:00,
2013-03-16 06:57:00,52.2,47.8,30.12,WSW,245,0.0,1.0,85,0.00,,,0.00,VWS V14.01,2013-03-16 10:57:00,
2013-03-16 07:03:00,52.1,47.7,30.12,WNW,283,0.0,4.0,85,0.00,,,0.00,VWS V14.01,2013-03-16 11:03:00,
2013-03-16 07:08:00,52.0,47.6,30.12,SW,223,1.0,2.0,85,0.00,,,0.00,VWS V14.01,2013-03-16 11:08:00,
2013-03-16 07:13:00,52.0,48.0,30.12,West,276,0.0,3.0,86,0.00,,,0.00,VWS V14.01,2013-03-16 11:13:00,
2013-03-16 07:18:00,51.9,47.8,30.12,West,276,0.0,1.0,86,0.00,,,0.00,VWS V14.01,2013-03-16 11:18:00,
2013-03-16 07:24:00,51.9,47.8,30.12,West,276,1.0,1.0,86,0.00,,,0.00,VWS V14.01,2013-03-16 11:24:00,
2013-03-16 07:30:00,51.9,47.8,30.12,WSW,239,0.0,1.0,86,0.00,,,0.00,VWS V14.01,2013-03-16 11:30:00,
2013-03-16 07:36:00,51.9,48.2,30.12,WSW,239,0.0,0.0,87,0.00,,,0.00,VWS V14.01,2013-03-16 11:36:00,
2013-03-16 07:42:00,51.9,48.2,30.13,West,274,2.0,6.0,87,0.00,,,0.00,VWS V14.01,2013-03-16 11:42:00,
2013-03-16 07:48:00,52.0,48.0,30.13,SSW,200,0.0,3.0,86,0.00,,,0.00,VWS V14.01,2013-03-16 11:48:00,
2013-03-16 07:53:00,52.2,48.5,30.13,South,191,0.0,4.0,87,0.00,,,0.00,VWS V14.01,2013-03-16 11:53:00,
2013-03-16 07:58:00,52.3,48.2,30.13,WSW,239,0.0,5.0,86,0.00,,,0.00,VWS V14.01,2013-03-16 11:58:00,
2013-03-16 08:03:00,52.4,48.3,30.13,SW,214,2.0,4.0,86,0.00,,,0.00,VWS V14.01,2013-03-16 12:03:00,
2013-03-16 08:09:00,52.6,48.5,30.14,SW,227,0.0,4.0,86,0.00,,,0.00,VWS V14.01,2013-03-16 12:09:00,
2013-03-16 08:15:00,52.8,48.7,30.14,SW,215,2.0,7.0,86,0.00,,,0.00,VWS V14.01,2013-03-16 12:15:00,
2013-03-16 08:21:00,53.0,48.9,30.14,SW,214,0.0,3.0,86,0.00,,,0.00,VWS V14.01,2013-03-16 12:21:00,
2013-03-16 08:27:00,53.1,49.0,30.13,SSW,198,0.0,6.0,86,0.00,,,0.00,VWS V14.01,2013-03-16 12:27:00,
2013-03-16 08:33:00,53.4,49.3,30.14,SSW,201,0.0,5.0,86,0.00,,,0.00,VWS V14.01,2013-03-16 12:33:00,
2013-03-16 08:38:00,53.6,49.2,30.14,SSW,208,0.0,4.0,85,0.00,,,0.00,VWS V14.01,2013-03-16 12:38:00,
2013-03-16 08:43:00,53.7,49.3,30.14,SW,234,3.0,5.0,85,0.00,,,0.00,VWS V14.01,2013-03-16 12:43:00,
2013-03-16 08:48:00,53.8,49.4,30.14,SSW,205,3.0,5.0,85,0.00,,,0.00,VWS V14.01,2013-03-16 12:48:00,
2013-03-16 08:54:00,54.1,49.4,30.14,SW,218,2.0,3.0,84,0.00,,,0.00,VWS V14.01,2013-03-16 12:54:00,
2013-03-16 09:00:00,54.4,49.7,30.14,SW,218,3.0,4.0,84,0.00,,,0.00,VWS V14.01,2013-03-16 13:00:00,
2013-03-16 09:06:00,54.6,49.9,30.14,SW,228,0.0,4.0,84,0.00,,,0.00,VWS V14.01,2013-03-16 13:06:00,
2013-03-16 09:13:00,54.9,50.2,30.15,SSW,212,2.0,4.0,84,0.00,,,0.00,VWS V14.01,2013-03-16 13:13:00,
2013-03-16 09:18:00,55.4,50.0,30.15,SW,216,2.0,5.0,82,0.00,,,0.00,VWS V14.01,2013-03-16 13:18:00,
2013-03-16 09:23:00,55.9,50.2,30.14,SW,215,0.0,5.0,81,0.00,,,0.00,VWS V14.01,2013-03-16 13:23:00,
2013-03-16 09:28:00,56.3,50.2,30.15,SW,217,0.0,6.0,80,0.00,,,0.00,VWS V14.01,2013-03-16 13:28:00,
2013-03-16 09:33:00,56.7,50.6,30.15,SSW,195,1.0,5.0,80,0.00,,,0.00,VWS V14.01,2013-03-16 13:33:00,
2013-03-16 09:38:00,57.1,50.7,30.15,SSW,198,3.0,5.0,79,0.00,,,0.00,VWS V14.01,2013-03-16 13:38:00,
2013-03-16 09:43:00,57.5,50.7,30.15,SW,220,0.0,4.0,78,0.00,,,0.00,VWS V14.01,2013-03-16 13:43:00,
2013-03-16 09:48:00,58.0,51.2,30.15,SW,222,1.0,3.0,78,0.00,,,0.00,VWS V14.01,2013-03-16 13:48:00,
2013-03-16 09:53:00,58.5,51.3,30.15,SW,216,2.0,5.0,77,0.00,,,0.00,VWS V14.01,2013-03-16 13:53:00,
2013-03-16 09:58:00,58.8,51.3,30.15,South,183,1.0,4.0,76,0.00,,,0.00,VWS V14.01,2013-03-16 13:58:00,
2013-03-16 10:03:00,59.3,51.8,30.15,SW,220,0.0,4.0,76,0.00,,,0.00,VWS V14.01,2013-03-16 14:03:00,
2013-03-16 10:10:00,59.9,52.0,30.15,SW,233,0.0,4.0,75,0.00,,,0.00,VWS V14.01,2013-03-16 14:10:00,
2013-03-16 10:16:00,60.9,52.2,30.15,SW,220,2.0,7.0,73,0.00,,,0.00,VWS V14.01,2013-03-16 14:16:00,
2013-03-16 10:22:00,62.1,51.8,30.14,SSW,204,0.0,10.0,69,0.00,,,0.00,VWS V14.01,2013-03-16 14:22:00,
2013-03-16 10:28:00,62.9,52.2,30.15,SSW,211,2.0,8.0,68,0.00,,,0.00,VWS V14.01,2013-03-16 14:28:00,
2013-03-16 10:33:00,63.3,52.2,30.15,SW,231,7.0,7.0,67,0.00,,,0.00,VWS V14.01,2013-03-16 14:33:00,
2013-03-16 10:38:00,63.6,52.5,30.14,WSW,251,3.0,7.0,67,0.00,,,0.00,VWS V14.01,2013-03-16 14:38:00,
2013-03-16 10:43:00,63.8,52.7,30.14,SSW,200,2.0,7.0,67,0.00,,,0.00,VWS V14.01,2013-03-16 14:43:00,
2013-03-16 10:48:00,64.2,52.6,30.14,SSW,212,4.0,7.0,66,0.00,,,0.00,VWS V14.01,2013-03-16 14:48:00,
2013-03-16 10:55:00,64.7,51.8,30.14,SSW,208,4.0,5.0,63,0.00,,,0.00,VWS V14.01,2013-03-16 14:55:00,
2013-03-16 11:03:00,65.5,52.6,30.14,West,268,3.0,6.0,63,0.00,,,0.00,VWS V14.01,2013-03-16 15:03:00,
2013-03-16 11:08:00,66.0,52.6,30.14,SW,216,6.0,7.0,62,0.00,,,0.00,VWS V14.01,2013-03-16 15:08:00,
2013-03-16 11:13:00,66.3,52.5,30.14,WSW,239,0.0,8.0,61,0.00,,,0.00,VWS V14.01,2013-03-16 15:13:00,
2013-03-16 11:20:00,66.8,52.5,30.14,SW,226,6.0,6.0,60,0.00,,,0.00,VWS V14.01,2013-03-16 15:20:00,
2013-03-16 11:26:00,67.3,53.0,30.13,West,269,4.0,6.0,60,0.00,,,0.00,VWS V14.01,2013-03-16 15:26:00,
2013-03-16 11:32:00,67.5,52.2,30.14,SW,220,4.0,6.0,58,0.00,,,0.00,VWS V14.01,2013-03-16 15:32:00,
2013-03-16 11:38:00,67.8,52.5,30.13,SW,220,2.0,6.0,58,0.00,,,0.00,VWS V14.01,2013-03-16 15:38:00,
2013-03-16 11:43:00,68.2,51.9,30.13,WSW,243,0.0,9.0,56,0.00,,,0.00,VWS V14.01,2013-03-16 15:43:00,
2013-03-16 11:50:00,68.9,52.6,30.13,SW,233,1.0,6.0,56,0.00,,,0.00,VWS V14.01,2013-03-16 15:50:00,
2013-03-16 11:56:00,69.2,52.4,30.12,WSW,258,2.0,6.0,55,0.00,,,0.00,VWS V14.01,2013-03-16 15:56:00,
2013-03-16 12:02:00,69.4,52.0,30.12,SSW,212,3.0,7.0,54,0.00,,,0.00,VWS V14.01,2013-03-16 16:02:00,
2013-03-16 12:08:00,69.4,52.0,30.12,SW,233,3.0,8.0,54,0.00,,,0.00,VWS V14.01,2013-03-16 16:08:00,
2013-03-16 12:13:00,69.6,52.2,30.12,WSW,237,2.0,8.0,54,0.00,,,0.00,VWS V14.01,2013-03-16 16:13:00,
2013-03-16 12:18:00,69.6,52.2,30.12,SW,233,6.0,8.0,54,0.00,,,0.00,VWS V14.01,2013-03-16 16:18:00,
2013-03-16 12:23:00,69.8,52.9,30.11,SW,234,7.0,7.0,55,0.00,,,0.00,VWS V14.01,2013-03-16 16:23:00,
2013-03-16 12:28:00,70.0,52.1,30.11,SW,220,6.0,10.0,53,0.00,,,0.00,VWS V14.01,2013-03-16 16:28:00,
2013-03-16 12:33:00,70.3,52.4,30.11,WSW,244,3.0,9.0,53,0.00,,,0.00,VWS V14.01,2013-03-16 16:33:00,
2013-03-16 12:39:00,70.8,51.8,30.11,WSW,245,3.0,5.0,51,0.00,,,0.00,VWS V14.01,2013-03-16 16:39:00,
2013-03-16 12:45:00,71.3,51.7,30.10,SW,228,3.0,6.0,50,0.00,,,0.00,VWS V14.01,2013-03-16 16:45:00,
2013-03-16 12:51:00,71.6,52.0,30.10,SW,220,4.0,9.0,50,0.00,,,0.00,VWS V14.01,2013-03-16 16:51:00,
2013-03-16 12:57:00,72.3,52.6,30.10,SW,236,0.0,5.0,50,0.00,,,0.00,VWS V14.01,2013-03-16 16:57:00,
2013-03-16 13:03:00,72.6,52.4,30.09,SSW,212,3.0,6.0,49,0.00,,,0.00,VWS V14.01,2013-03-16 17:03:00,
2013-03-16 13:08:00,72.6,51.2,30.09,SW,233,0.0,8.0,47,0.00,,,0.00,VWS V14.01,2013-03-16 17:08:00,
2013-03-16 13:13:00,73.2,51.8,30.09,SW,230,2.0,6.0,47,0.00,,,0.00,VWS V14.01,2013-03-16 17:13:00,
2013-03-16 13:21:00,73.7,52.2,30.09,SW,215,0.0,5.0,47,0.00,,,0.00,VWS V14.01,2013-03-16 17:21:00,
2013-03-16 13:27:00,74.2,52.1,30.08,SW,220,6.0,8.0,46,0.00,,,0.00,VWS V14.01,2013-03-16 17:27:00,
2013-03-16 13:33:00,74.7,52.0,30.08,WSW,242,0.0,7.0,45,0.00,,,0.00,VWS V14.01,2013-03-16 17:33:00,
2013-03-16 13:38:00,75.2,51.2,30.08,WSW,239,2.0,6.0,43,0.00,,,0.00,VWS V14.01,2013-03-16 17:38:00,
2013-03-16 13:43:00,75.4,50.7,30.08,WSW,244,2.0,6.0,42,0.00,,,0.00,VWS V14.01,2013-03-16 17:43:00,
2013-03-16 13:48:00,75.6,50.9,30.07,SW,227,2.0,9.0,42,0.00,,,0.00,VWS V14.01,2013-03-16 17:48:00,
2013-03-16 13:54:00,75.8,51.7,30.07,WSW,248,1.0,4.0,43,0.00,,,0.00,VWS V14.01,2013-03-16 17:54:00,
2013-03-16 14:00:00,76.2,50.8,30.07,SSW,194,4.0,7.0,41,0.00,,,0.00,VWS V14.01,2013-03-16 18:00:00,
2013-03-16 14:06:00,75.8,51.1,30.06,West,270,0.0,9.0,42,0.00,,,0.00,VWS V14.01,2013-03-16 18:06:00,
2013-03-16 14:12:00,75.8,50.5,30.06,WSW,251,4.0,9.0,41,0.00,,,0.00,VWS V14.01,2013-03-16 18:12:00,
2013-03-16 14:18:00,75.9,51.8,30.06,West,268,2.0,10.0,43,0.00,,,0.00,VWS V14.01,2013-03-16 18:18:00,
2013-03-16 14:23:00,76.2,50.8,30.05,SW,220,2.0,8.0,41,0.00,,,0.00,VWS V14.01,2013-03-16 18:23:00,
2013-03-16 14:28:00,76.6,51.8,30.05,SSW,205,4.0,6.0,42,0.00,,,0.00,VWS V14.01,2013-03-16 18:28:00,
2013-03-16 14:33:00,77.0,50.2,30.05,SSW,203,6.0,7.0,39,0.00,,,0.00,VWS V14.01,2013-03-16 18:33:00,
2013-03-16 14:40:00,77.1,50.9,30.05,WSW,257,1.0,6.0,40,0.00,,,0.00,VWS V14.01,2013-03-16 18:40:00,
2013-03-16 14:46:00,76.5,51.7,30.04,SSW,211,4.0,9.0,42,0.00,,,0.00,VWS V14.01,2013-03-16 18:46:00,
2013-03-16 14:52:00,76.4,51.6,30.04,SSW,195,1.0,7.0,42,0.00,,,0.00,VWS V14.01,2013-03-16 18:52:00,
2013-03-16 14:58:00,76.9,52.1,30.04,SW,218,10.0,10.0,42,0.00,,,0.00,VWS V14.01,2013-03-16 18:58:00,
2013-03-16 15:03:00,76.8,50.7,30.03,SW,229,7.0,11.0,40,0.00,,,0.00,VWS V14.01,2013-03-16 19:03:00,
2013-03-16 15:08:00,76.9,50.8,30.03,SSW,201,7.0,9.0,40,0.00,,,0.00,VWS V14.01,2013-03-16 19:08:00,
2013-03-16 15:13:00,77.1,50.3,30.03,WSW,250,2.0,11.0,39,0.00,,,0.00,VWS V14.01,2013-03-16 19:13:00,
2013-03-16 15:19:00,77.6,49.3,30.03,WSW,251,4.0,7.0,37,0.00,,,0.00,VWS V14.01,2013-03-16 19:19:00,
2013-03-16 15:25:00,77.6,49.3,30.02,SSW,202,7.0,9.0,37,0.00,,,0.00,VWS V14.01,2013-03-16 19:25:00,
2013-03-16 15:31:00,77.6,48.6,30.02,SW,224,5.0,7.0,36,0.00,,,0.00,VWS V14.01,2013-03-16 19:31:00,
2013-03-16 15:37:00,77.8,50.2,30.02,SW,235,0.0,7.0,38,0.00,,,0.00,VWS V14.01,2013-03-16 19:37:00,
2013-03-16 15:43:00,77.8,49.5,30.01,SW,226,4.0,8.0,37,0.00,,,0.00,VWS V14.01,2013-03-16 19:43:00,
2013-03-16 15:48:00,77.7,50.1,30.01,SW,217,4.0,7.0,38,0.00,,,0.00,VWS V14.01,2013-03-16 19:48:00,
2013-03-16 15:53:00,77.8,48.7,30.01,WSW,241,6.0,10.0,36,0.00,,,0.00,VWS V14.01,2013-03-16 19:53:00,
2013-03-16 15:58:00,77.9,49.6,30.01,WSW,243,2.0,11.0,37,0.00,,,0.00,VWS V14.01,2013-03-16 19:58:00,
2013-03-16 16:03:00,77.8,48.7,30.00,SW,226,3.0,9.0,36,0.00,,,0.00,VWS V14.01,2013-03-16 20:03:00,
2013-03-16 16:08:00,78.1,49.7,30.00,WSW,258,1.0,9.0,37,0.00,,,0.00,VWS V14.01,2013-03-16 20:08:00,
2013-03-16 16:14:00,77.8,49.5,30.00,SW,228,7.0,8.0,37,0.00,,,0.00,VWS V14.01,2013-03-16 20:14:00,
2013-03-16 16:20:00,77.4,49.1,30.00,SW,223,5.0,8.0,37,0.00,,,0.00,VWS V14.01,2013-03-16 20:20:00,
2013-03-16 16:26:00,77.8,48.0,30.00,SSW,199,7.0,8.0,35,0.00,,,0.00,VWS V14.01,2013-03-16 20:26:00,
2013-03-16 16:32:00,77.8,48.7,30.00,SSW,200,6.0,10.0,36,0.00,,,0.00,VWS V14.01,2013-03-16 20:32:00,
2013-03-16 16:38:00,78.2,47.6,29.99,SW,218,7.0,10.0,34,0.00,,,0.00,VWS V14.01,2013-03-16 20:38:00,
2013-03-16 16:43:00,78.2,47.6,29.99,SW,226,9.0,12.0,34,0.00,,,0.00,VWS V14.01,2013-03-16 20:43:00,
2013-03-16 16:48:00,78.2,48.3,29.99,SW,218,7.0,10.0,35,0.00,,,0.00,VWS V14.01,2013-03-16 20:48:00,
2013-03-16 16:53:00,78.3,49.2,29.99,SW,218,7.0,8.0,36,0.00,,,0.00,VWS V14.01,2013-03-16 20:53:00,
2013-03-16 16:58:00,78.0,48.9,29.99,SSW,195,3.0,9.0,36,0.00,,,0.00,VWS V14.01,2013-03-16 20:58:00,
2013-03-16 17:05:00,78.0,50.4,29.98,WSW,251,5.0,8.0,38,0.00,,,0.00,VWS V14.01,2013-03-16 21:05:00,
2013-03-16 17:11:00,77.7,49.4,29.98,SSW,195,6.0,8.0,37,0.00,,,0.00,VWS V14.01,2013-03-16 21:11:00,
2013-03-16 17:17:00,78.0,49.7,29.98,SSW,207,5.0,9.0,37,0.00,,,0.00,VWS V14.01,2013-03-16 21:17:00,
2013-03-16 17:23:00,77.8,48.7,29.98,WSW,245,7.0,12.0,36,0.00,,,0.00,VWS V14.01,2013-03-16 21:23:00,
2013-03-16 17:28:00,77.7,48.7,29.98,WSW,250,6.0,10.0,36,0.00,,,0.00,VWS V14.01,2013-03-16 21:28:00,
2013-03-16 17:33:00,77.8,48.0,29.98,SW,220,5.0,10.0,35,0.00,,,0.00,VWS V14.01,2013-03-16 21:33:00,
2013-03-16 17:38:00,77.9,49.6,29.98,West,268,3.0,8.0,37,0.00,,,0.00,VWS V14.01,2013-03-16 21:38:00,
2013-03-16 17:43:00,77.7,49.4,29.98,WSW,241,9.0,9.0,37,0.00,,,0.00,VWS V14.01,2013-03-16 21:43:00,
2013-03-16 17:48:00,77.1,50.3,29.98,SW,221,4.0,11.0,39,0.00,,,0.00,VWS V14.01,2013-03-16 21:48:00,
2013-03-16 17:53:00,77.1,48.8,29.98,WSW,249,2.0,12.0,37,0.00,,,0.00,VWS V14.01,2013-03-16 21:53:00,
2013-03-16 17:58:00,77.3,49.0,29.98,SW,222,3.0,14.0,37,0.00,,,0.00,VWS V14.01,2013-03-16 21:58:00,
2013-03-16 18:06:00,77.2,48.9,29.98,SW,233,7.0,7.0,37,0.00,,,0.00,VWS V14.01,2013-03-16 22:06:00,
2013-03-16 18:12:00,77.1,48.8,29.98,SSW,202,6.0,8.0,37,0.00,,,0.00,VWS V14.01,2013-03-16 22:12:00,
2013-03-16 18:18:00,77.1,48.8,29.98,SW,235,9.0,11.0,37,0.00,,,0.00,VWS V14.01,2013-03-16 22:18:00,
2013-03-16 18:23:00,76.9,48.7,29.98,SW,230,4.0,11.0,37,0.00,,,0.00,VWS V14.01,2013-03-16 22:23:00,
2013-03-16 18:28:00,76.7,49.2,29.98,WSW,243,5.0,10.0,38,0.00,,,0.00,VWS V14.01,2013-03-16 22:28:00,
2013-03-16 18:36:00,76.5,49.7,29.98,SW,223,7.0,8.0,39,0.00,,,0.00,VWS V14.01,2013-03-16 22:36:00,
2013-03-16 18:42:00,76.1,50.0,29.98,SW,216,6.0,8.0,40,0.00,,,0.00,VWS V14.01,2013-03-16 22:42:00,
2013-03-16 18:48:00,75.7,50.4,29.98,SW,228,5.0,9.0,41,0.00,,,0.00,VWS V14.01,2013-03-16 22:48:00,
2013-03-16 18:53:00,75.5,48.8,29.98,SW,231,4.0,10.0,39,0.00,,,0.00,VWS V14.01,2013-03-16 22:53:00,
2013-03-16 18:58:00,75.5,48.8,29.99,SSW,208,4.0,11.0,39,0.00,,,0.00,VWS V14.01,2013-03-16 22:58:00,
2013-03-16 19:03:00,75.3,50.0,29.99,SW,235,6.0,6.0,41,0.00,,,0.00,VWS V14.01,2013-03-16 23:03:00,
2013-03-16 19:09:00,74.7,50.1,29.99,SSW,207,2.0,12.0,42,0.00,,,0.00,VWS V14.01,2013-03-16 23:09:00,
2013-03-16 19:15:00,74.3,50.4,29.99,SW,232,2.0,10.0,43,0.00,,,0.00,VWS V14.01,2013-03-16 23:15:00,
2013-03-16 19:21:00,74.0,50.1,29.99,SSW,212,4.0,8.0,43,0.00,,,0.00,VWS V14.01,2013-03-16 23:21:00,
2013-03-16 19:27:00,73.8,49.9,30.00,SW,234,3.0,8.0,43,0.00,,,0.00,VWS V14.01,2013-03-16 23:27:00,
2013-03-16 19:33:00,73.8,49.9,30.00,WSW,245,4.0,10.0,43,0.00,,,0.00,VWS V14.01,2013-03-16 23:33:00,
2013-03-16 19:38:00,73.7,49.8,30.00,WSW,252,4.0,9.0,43,0.00,,,0.00,VWS V14.01,2013-03-16 23:38:00,
2013-03-16 19:43:00,73.5,50.3,30.00,West,262,3.0,6.0,44,0.00,,,0.00,VWS V14.01,2013-03-16 23:43:00,
2013-03-16 19:48:00,73.2,49.4,30.00,WSW,244,3.0,7.0,43,0.00,,,0.00,VWS V14.01,2013-03-16 23:48:00,
2013-03-16 19:53:00,73.1,49.9,30.00,West,260,2.0,7.0,44,0.00,,,0.00,VWS V14.01,2013-03-16 23:53:00,
2013-03-16 19:58:00,72.8,50.2,30.01,SW,218,3.0,6.0,45,0.00,,,0.00,VWS V14.01,2013-03-16 23:58:00,
2013-03-16 20:04:00,72.4,50.5,30.01,West,265,0.0,3.0,46,0.00,,,0.00,VWS V14.01,2013-03-17 00:04:00,
2013-03-16 20:10:00,72.1,50.2,30.01,SSW,212,5.0,5.0,46,0.00,,,0.00,VWS V14.01,2013-03-17 00:10:00,
2013-03-16 20:16:00,71.8,50.5,30.01,SW,234,0.0,5.0,47,0.00,,,0.00,VWS V14.01,2013-03-17 00:16:00,
2013-03-16 20:22:00,71.5,51.4,30.01,SW,231,0.0,5.0,49,0.00,,,0.00,VWS V14.01,2013-03-17 00:22:00,
2013-03-16 20:28:00,71.1,51.5,30.02,WSW,256,4.0,5.0,50,0.00,,,0.00,VWS V14.01,2013-03-17 00:28:00,
2013-03-16 20:33:00,70.7,51.7,30.02,SSW,204,2.0,4.0,51,0.00,,,0.00,VWS V14.01,2013-03-17 00:33:00,
2013-03-16 20:38:00,70.3,52.4,30.02,SW,230,0.0,2.0,53,0.00,,,0.00,VWS V14.01,2013-03-17 00:38:00,
2013-03-16 20:43:00,69.9,52.0,30.02,SW,226,0.0,4.0,53,0.00,,,0.00,VWS V14.01,2013-03-17 00:43:00,
2013-03-16 20:48:00,69.6,52.7,30.03,WSW,239,0.0,2.0,55,0.00,,,0.00,VWS V14.01,2013-03-17 00:48:00,
2013-03-16 20:53:00,69.2,51.4,30.03,SW,230,1.0,4.0,53,0.00,,,0.00,VWS V14.01,2013-03-17 00:53:00,
2013-03-16 20:58:00,69.1,51.8,30.03,WSW,239,1.0,5.0,54,0.00,,,0.00,VWS V14.01,2013-03-17 00:58:00,
2013-03-16 21:04:00,69.2,51.4,30.03,SW,214,3.0,3.0,53,0.00,,,0.00,VWS V14.01,2013-03-17 01:04:00,
2013-03-16 21:10:00,69.2,51.4,30.03,WSW,239,1.0,4.0,53,0.00,,,0.00,VWS V14.01,2013-03-17 01:10:00,
2013-03-16 21:16:00,69.0,51.2,30.03,South,191,0.0,4.0,53,0.00,,,0.00,VWS V14.01,2013-03-17 01:16:00,
2013-03-16 21:22:00,68.8,51.0,30.03,South,189,5.0,5.0,53,0.00,,,0.00,VWS V14.01,2013-03-17 01:22:00,
2013-03-16 21:28:00,68.6,51.3,30.04,SSW,210,1.0,6.0,54,0.00,,,0.00,VWS V14.01,2013-03-17 01:28:00,
2013-03-16 21:33:00,68.3,51.0,30.04,SSW,208,4.0,5.0,54,0.00,,,0.00,VWS V14.01,2013-03-17 01:33:00,
2013-03-16 21:38:00,68.1,51.3,30.04,SSW,208,0.0,6.0,55,0.00,,,0.00,VWS V14.01,2013-03-17 01:38:00,
2013-03-16 21:43:00,67.9,51.2,30.04,SSW,204,1.0,7.0,55,0.00,,,0.00,VWS V14.01,2013-03-17 01:43:00,
2013-03-16 21:48:00,67.6,51.8,30.04,SSW,196,0.0,4.0,57,0.00,,,0.00,VWS V14.01,2013-03-17 01:48:00,
2013-03-16 21:53:00,67.3,50.6,30.04,WSW,237,5.0,6.0,55,0.00,,,0.00,VWS V14.01,2013-03-17 01:53:00,
2013-03-16 21:58:00,67.2,50.0,30.05,SSW,207,4.0,6.0,54,0.00,,,0.00,VWS V14.01,2013-03-17 01:58:00,
2013-03-16 22:03:00,67.1,49.4,30.05,SW,222,2.0,8.0,53,0.00,,,0.00,VWS V14.01,2013-03-17 02:03:00,
2013-03-16 22:08:00,67.0,49.3,30.05,SW,222,2.0,7.0,53,0.00,,,0.00,VWS V14.01,2013-03-17 02:08:00,
2013-03-16 22:13:00,66.8,49.1,30.05,SW,214,5.0,5.0,53,0.00,,,0.00,VWS V14.01,2013-03-17 02:13:00,
2013-03-16 22:19:00,66.6,49.0,30.06,SSW,198,6.0,6.0,53,0.00,,,0.00,VWS V14.01,2013-03-17 02:19:00,
2013-03-16 22:25:00,66.4,48.8,30.06,SW,233,4.0,9.0,53,0.00,,,0.00,VWS V14.01,2013-03-17 02:25:00,
2013-03-16 22:32:00,66.2,48.1,30.06,SSW,197,0.0,6.0,52,0.00,,,0.00,VWS V14.01,2013-03-17 02:32:00,
2013-03-16 22:38:00,66.0,47.9,30.06,WSW,247,6.0,7.0,52,0.00,,,0.00,VWS V14.01,2013-03-17 02:38:00,
2013-03-16 22:43:00,65.9,47.8,30.06,SSW,207,3.0,7.0,52,0.00,,,0.00,VWS V14.01,2013-03-17 02:43:00,
2013-03-16 22:48:00,65.8,47.7,30.06,SW,231,1.0,5.0,52,0.00,,,0.00,VWS V14.01,2013-03-17 02:48:00,
2013-03-16 22:53:00,65.5,47.4,30.06,SW,218,0.0,7.0,52,0.00,,,0.00,VWS V14.01,2013-03-17 02:53:00,
2013-03-16 22:58:00,65.4,47.3,30.06,SW,218,0.0,7.0,52,0.00,,,0.00,VWS V14.01,2013-03-17 02:58:00,
2013-03-16 23:05:00,65.2,47.7,30.07,SSW,206,2.0,3.0,53,0.00,,,0.00,VWS V14.01,2013-03-17 03:05:00,
2013-03-16 23:11:00,65.0,47.5,30.07,SW,218,1.0,4.0,53,0.00,,,0.00,VWS V14.01,2013-03-17 03:11:00,
2013-03-16 23:17:00,64.8,47.3,30.07,SW,223,1.0,8.0,53,0.00,,,0.00,VWS V14.01,2013-03-17 03:17:00,
2013-03-16 23:23:00,64.6,47.6,30.07,SSW,212,1.0,5.0,54,0.00,,,0.00,VWS V14.01,2013-03-17 03:23:00,
2013-03-16 23:28:00,64.4,47.9,30.07,SW,223,1.0,7.0,55,0.00,,,0.00,VWS V14.01,2013-03-17 03:28:00,
2013-03-16 23:33:00,64.2,47.7,30.07,SW,236,0.0,6.0,55,0.00,,,0.00,VWS V14.01,2013-03-17 03:33:00,
2013-03-16 23:38:00,64.1,48.1,30.07,SSW,203,4.0,7.0,56,0.00,,,0.00,VWS V14.01,2013-03-17 03:38:00,
2013-03-16 23:43:00,63.8,47.8,30.07,WSW,237,1.0,6.0,56,0.00,,,0.00,VWS V14.01,2013-03-17 03:43:00,
2013-03-16 23:48:00,63.7,47.7,30.07,SW,217,8.0,8.0,56,0.00,,,0.00,VWS V14.01,2013-03-17 03:48:00,
2013-03-16 23:53:00,63.5,47.5,30.07,WSW,247,2.0,8.0,56,0.00,,,0.00,VWS V14.01,2013-03-17 03:53:00,
2013-03-16 23:58:00,63.4,47.5,30.07,SW,235,0.0,7.0,56,0.00,,,0.00,VWS V14.01,2013-03-17 03:58:00,